Regional Weather Roundup
Issued by NWS

Home | Current Version | Previous Version | Graphics & Text | Print | Product List | Glossary Off
Versions: 1 2 3 4 5 6 7 8 9 10 11 12 13 14 15 16 17 18 19 20 21 22 23 24 25 26 27 28 29 30 31 32 33 34 35 36 37 38 39 40 41 42 43 44 45 46 47 48 49 50

000
ASUS43 KTOP 170608
RWRKS

WEATHER ROUNDUP FOR KANSAS
NATIONAL WEATHER SERVICE GOODLAND KS
100 AM CDT THU APR 17 2014

NOTE:  "FAIR" INDICATES FEW OR NO CLOUDS BELOW 12,000 FEET WITH NO
SIGNIFICANT WEATHER AND/OR OBSTRUCTIONS TO VISIBILITY.

KSZ001>006-013>018-027>032-041>047-170700-
NORTHWEST KANSAS

CITY           SKY/WX    TMP DP  RH WIND       PRES   REMARKS
GOODLAND       CLOUDY    39  34  82 E7        30.15R
6HR MIN TEMP:  39; 6HR MAX TEMP:  52;

HAYS           FAIR      43  28  56 N17       30.15R
HILL CITY      FAIR      38  29  70 NE12      30.18R WCI  30
6HR MIN TEMP:  38; 6HR MAX TEMP:  55;

RUSSELL        FAIR      41  30  65 N16       30.13R
6HR MIN TEMP:  41; 6HR MAX TEMP:  58;

$$

KSZ061>065-074>080-084>089-170700-
SOUTHWEST KANSAS

CITY           SKY/WX    TMP DP  RH WIND       PRES   REMARKS
DODGE CITY     MOCLDY    48  33  56 NE18      30.08R
6HR MIN TEMP:  48; 6HR MAX TEMP:  62;

ELKHART          N/A     47  31  54 NE15        N/A
GARDEN CITY    CLOUDY    49  34  56 NE17      30.09S
6HR MIN TEMP:  48; 6HR MAX TEMP:  60;

GREAT BEND     CLOUDY    45  30  57 NE16      30.12R
LIBERAL        FAIR      50  30  46 NE15      30.10R
PRATT          CLOUDY    46  34  61 NE10      30.12R
$$

KSZ066>073-081>083-090>101-170700-
SOUTHEAST KANSAS

CITY           SKY/WX    TMP DP  RH WIND       PRES   REMARKS
CHANUTE        FAIR      49  34  56 W6        30.09R
6HR MIN TEMP:  49; 6HR MAX TEMP:  62;

COFFEYVILLE    FAIR      49  34  56 S3        30.07R
6HR MIN TEMP:  48; 6HR MAX TEMP:  63;

HUTCHINSON     FAIR      46  32  58 NE9G21    30.14R
6HR MIN TEMP:  46; 6HR MAX TEMP:  69;

MEDICINE LODGE   N/A     50  35  56 NE17G28   30.09R
NEWTON         FAIR      43  28  56 N15       30.14R
PARSONS        FAIR      48  33  56 S5        30.08R
6HR MIN TEMP:  48; 6HR MAX TEMP:  63;

WICHITA INTL   FAIR      49  34  56 N10       30.11R
6HR MIN TEMP:  49; 6HR MAX TEMP:  70;

WICHITA JABRA  FAIR      45  34  65 NE10      30.11R
6HR MIN TEMP:  45; 6HR MAX TEMP:  69;

WICHITA MCCONL FAIR      47  36  66 NE13      30.11R
WINFIELD       FAIR      50  37  61 NE13      30.10R
6HR MIN TEMP:  45; 6HR MAX TEMP:  67;

$$

KSZ007>012-019>026-033>040-048>060-102>105-170700-
NORTHEAST KANSAS

CITY           SKY/WX    TMP DP  RH WIND       PRES   REMARKS
CONCORDIA      FAIR      37  28  70 N20       30.15R WCI  27
6HR MIN TEMP:  37; 6HR MAX TEMP:  53;

EMPORIA        FAIR      43  32  65 N12       30.11R
6HR MIN TEMP:  43; 6HR MAX TEMP:  68;

LAWRENCE       CLOUDY    43  32  65 NW18      30.11R
6HR MIN TEMP:  43; 6HR MAX TEMP:  64;

MANHATTAN      FAIR      40  29  64 N8        30.16R
6HR MIN TEMP:  40; 6HR MAX TEMP:  66;

OLATHE IND     FAIR      43  32  65 N14       30.10R
6HR MIN TEMP:  43; 6HR MAX TEMP:  61;

OLATHE EXE     FAIR      44  32  62 N14       30.08R
6HR MIN TEMP:  44; 6HR MAX TEMP:  61;

SALINA         FAIR      42  29  59 N15       30.17R
6HR MIN TEMP:  42; 6HR MAX TEMP:  65; 6HR PCP: TRACE;

TOPEKA BILLARD FAIR      42  31  64 N14       30.13R
6HR MIN TEMP:  42; 6HR MAX TEMP:  69;

TOPEKA FORBES  FAIR      42  31  64 N16       30.12R
6HR MIN TEMP:  42; 6HR MAX TEMP:  66;

$$



USA.gov is the U.S. government's official web portal to all federal, state and local government web resources and services.